DAL215 LIRF-KATL

Flight info

Callsign DAL215
Flight time N/A
Altitude 36000
Route PODOX DCT TOBGA DCT DOBIM DCT PIGOS DCT BODRU DCT KOTIT DCT ETREK DCT NOQAS DCT LERGA DCT VALKU/N0484F370 DCT PECNO DCT LMG/N0489F380 DCT MANAK UT183 BAGAD DCT LARLA DCT RATKA/M084F380 DCT SOMAX/M084F390 DCT 51N020W 51N030W 51N040W 50N050W DCT ELSIR/N0495F400 N402C ALLEX DCT KAYCC DCT KYLOH DCT BAF Q448 PTW J48 MOL DCT FLASK OZZZI1
Aircraft A359/H-SDE2E3GHIJ3J4J5LM1ORWXY/LB1D1

Departure

Time 2026-05-04 03:01
Airport Rome–Fiumicino Leonardo da Vinci International Airport (LIRF)

Arrival

Time N/A
Airport Hartsfield Jackson Atlanta International Airport (KATL)
Time Latitude Longitude Altitude Speed Heading
2026-05-04 02:41 41.79655 12.24314 21 ft 0 kts 250°
2026-05-04 02:49 41.79658 12.24325 21 ft 2 kts 252°
2026-05-04 02:49 41.79661 12.24347 22 ft 2 kts 266°
2026-05-04 02:49 41.79661 12.24369 25 ft 2 kts 280°
2026-05-04 02:49 41.79656 12.24390 24 ft 2 kts 299°
2026-05-04 02:50 41.79646 12.24409 25 ft 2 kts 313°
2026-05-04 02:50 41.79634 12.24423 25 ft 2 kts 325°
2026-05-04 02:50 41.79620 12.24435 25 ft 2 kts 333°
2026-05-04 02:50 41.79608 12.24442 25 ft 1 kts 339°
2026-05-04 02:51 41.79606 12.24443 25 ft 0 kts 339°
2026-05-04 02:53 41.79608 12.24442 21 ft 1 kts 339°
2026-05-04 02:53 41.79625 12.24434 21 ft 4 kts 343°
2026-05-04 02:54 41.79659 12.24420 21 ft 6 kts 343°
2026-05-04 02:54 41.79712 12.24398 21 ft 9 kts 341°
2026-05-04 02:54 41.79779 12.24363 21 ft 11 kts 337°
2026-05-04 02:54 41.79840 12.24387 21 ft 9 kts 22°
2026-05-04 02:55 41.79928 12.24538 21 ft 12 kts 72°
2026-05-04 02:55 41.79958 12.24647 22 ft 14 kts 70°
2026-05-04 02:55 41.79997 12.24771 21 ft 14 kts 51°
2026-05-04 02:56 41.80066 12.24807 21 ft 10 kts 27°
2026-05-04 02:56 41.80101 12.24793 21 ft 6 kts 332°
2026-05-04 02:56 41.80155 12.24782 21 ft 10 kts 16°
2026-05-04 02:56 41.80197 12.24860 21 ft 12 kts 73°
2026-05-04 02:57 41.80207 12.24984 21 ft 15 kts 89°
2026-05-04 02:57 41.80224 12.25135 21 ft 18 kts 66°
2026-05-04 02:57 41.80272 12.25302 21 ft 21 kts 70°
2026-05-04 02:57 41.80326 12.25502 21 ft 24 kts 70°
2026-05-04 02:58 41.80386 12.25729 21 ft 27 kts 67°
2026-05-04 02:58 41.80456 12.25973 21 ft 29 kts 69°
2026-05-04 02:58 41.80528 12.26230 21 ft 29 kts 70°
2026-05-04 02:58 41.80598 12.26484 21 ft 29 kts 70°
2026-05-04 02:59 41.80667 12.26738 21 ft 29 kts 71°
2026-05-04 02:59 41.80733 12.26977 21 ft 25 kts 69°
2026-05-04 02:59 41.80794 12.27043 21 ft 8 kts 355°
2026-05-04 02:59 41.80857 12.27018 21 ft 11 kts 340°
2026-05-04 03:00 41.80942 12.26966 20 ft 13 kts 312°
2026-05-04 03:00 41.80940 12.26868 19 ft 12 kts 251°
2026-05-04 03:00 41.80897 12.26708 19 ft 31 kts 249°
2026-05-04 03:00 41.80763 12.26218 29 ft 85 kts 251°
2026-05-04 03:01 41.80477 12.25187 21 ft 153 kts 249°
2026-05-04 03:01 41.80042 12.23629 210 ft 195 kts 250°
2026-05-04 03:01 41.79544 12.21885 624 ft 204 kts 249°
2026-05-04 03:01 41.79017 12.20137 1001 ft 209 kts 247°
2026-05-04 03:02 41.78453 12.18305 1460 ft 216 kts 246°
2026-05-04 03:02 41.77856 12.16413 1893 ft 225 kts 245°
2026-05-04 03:02 41.77202 12.14438 2276 ft 237 kts 244°
2026-05-04 03:02 41.76491 12.12403 2714 ft 246 kts 243°
2026-05-04 03:03 41.75931 12.10189 3162 ft 257 kts 261°
2026-05-04 03:03 41.76123 12.07813 3630 ft 267 kts 289°
2026-05-04 03:03 41.76911 12.05505 4013 ft 270 kts 295°
2026-05-04 03:03 41.77732 12.03246 4189 ft 270 kts 294°
2026-05-04 03:04 41.78541 12.01015 4251 ft 270 kts 294°
2026-05-04 03:04 41.79363 11.98743 4539 ft 272 kts 294°
2026-05-04 03:04 41.80189 11.96450 5125 ft 274 kts 293°
2026-05-04 03:04 41.81015 11.94138 5754 ft 274 kts 293°
2026-05-04 03:05 41.81838 11.91817 6361 ft 276 kts 293°
2026-05-04 03:05 41.82657 11.89487 6951 ft 277 kts 293°
2026-05-04 03:05 41.83484 11.87127 7496 ft 280 kts 293°
2026-05-04 03:05 41.84302 11.84785 8053 ft 282 kts 293°
2026-05-04 03:06 41.85135 11.82396 8619 ft 284 kts 293°
2026-05-04 03:06 41.85973 11.79993 9198 ft 285 kts 293°
2026-05-04 03:06 41.86816 11.77575 9784 ft 287 kts 293°
2026-05-04 03:06 41.87670 11.75125 10269 ft 293 kts 293°
2026-05-04 03:07 41.88552 11.72588 10517 ft 306 kts 293°
2026-05-04 03:07 41.89471 11.69942 10772 ft 318 kts 293°
2026-05-04 03:07 41.90426 11.67191 11019 ft 331 kts 294°
2026-05-04 03:07 41.91404 11.64375 11258 ft 342 kts 294°
2026-05-04 03:08 41.92423 11.61438 11527 ft 352 kts 294°
2026-05-04 03:08 41.93465 11.58432 11937 ft 357 kts 294°
2026-05-04 03:08 41.94521 11.55388 12381 ft 361 kts 294°
2026-05-04 03:08 41.95584 11.52316 12848 ft 364 kts 294°
2026-05-04 03:09 41.96653 11.49226 13306 ft 366 kts 294°
2026-05-04 03:09 41.97734 11.46093 13790 ft 369 kts 294°
2026-05-04 03:09 41.98817 11.42954 14219 ft 371 kts 293°
2026-05-04 03:09 41.99905 11.39793 14627 ft 374 kts 293°
2026-05-04 03:10 42.01002 11.36604 15038 ft 376 kts 294°
2026-05-04 03:10 42.02106 11.33387 15439 ft 379 kts 294°
2026-05-04 03:10 42.03201 11.30192 15842 ft 382 kts 294°
2026-05-04 03:10 42.04315 11.26941 16251 ft 384 kts 294°
2026-05-04 03:11 42.05434 11.23670 16660 ft 387 kts 294°
2026-05-04 03:11 42.06566 11.20358 17064 ft 389 kts 294°
2026-05-04 03:11 42.07704 11.17026 17472 ft 392 kts 294°
2026-05-04 03:11 42.08845 11.13681 17870 ft 395 kts 294°
2026-05-04 03:12 42.09995 11.10306 18282 ft 397 kts 294°
2026-05-04 03:12 42.11150 11.06910 18620 ft 400 kts 294°
2026-05-04 03:12 42.12310 11.03495 18983 ft 401 kts 294°
2026-05-04 03:12 42.13472 11.00073 19374 ft 402 kts 294°
2026-05-04 03:13 42.14620 10.96684 19736 ft 403 kts 294°
2026-05-04 03:13 42.15783 10.93249 20088 ft 404 kts 293°
2026-05-04 03:13 42.16952 10.89788 20465 ft 405 kts 293°
2026-05-04 03:13 42.18120 10.86328 20824 ft 406 kts 293°
2026-05-04 03:14 42.19293 10.82852 21172 ft 408 kts 293°
2026-05-04 03:14 42.20472 10.79357 21518 ft 409 kts 293°
2026-05-04 03:14 42.21654 10.75850 21861 ft 410 kts 293°
2026-05-04 03:14 42.22819 10.72383 22174 ft 412 kts 293°
2026-05-04 03:15 42.24001 10.68852 22503 ft 413 kts 293°
2026-05-04 03:15 42.25187 10.65303 22840 ft 414 kts 293°
2026-05-04 03:15 42.26411 10.61773 23140 ft 417 kts 297°
2026-05-04 03:15 42.27934 10.58420 23447 ft 419 kts 305°
2026-05-04 03:16 42.29826 10.55416 23751 ft 421 kts 313°
2026-05-04 03:16 42.31938 10.52654 23998 ft 423 kts 316°
2026-05-04 03:16 42.34159 10.50029 24249 ft 425 kts 318°
2026-05-04 03:16 42.36447 10.47459 24501 ft 427 kts 319°
2026-05-04 03:17 42.38749 10.44910 24744 ft 429 kts 319°
2026-05-04 03:17 42.41065 10.42333 24972 ft 431 kts 319°
2026-05-04 03:17 42.43344 10.39770 25218 ft 433 kts 319°
2026-05-04 03:17 42.45661 10.37137 25474 ft 435 kts 318°
2026-05-04 03:18 42.47977 10.34483 25722 ft 437 kts 318°
2026-05-04 03:18 42.50295 10.31812 25970 ft 438 kts 317°
2026-05-04 03:18 42.52619 10.29128 26225 ft 440 kts 317°
2026-05-04 03:18 42.54952 10.26430 26485 ft 442 kts 317°
2026-05-04 03:19 42.57286 10.23728 26737 ft 444 kts 317°
2026-05-04 03:19 42.59645 10.20995 27007 ft 445 kts 317°
2026-05-04 03:19 42.62014 10.18249 27279 ft 447 kts 317°
2026-05-04 03:19 42.64381 10.15502 27563 ft 449 kts 317°
2026-05-04 03:20 42.66755 10.12746 27831 ft 450 kts 317°
2026-05-04 03:20 42.69142 10.09971 28104 ft 452 kts 317°
2026-05-04 03:20 42.71528 10.07195 28378 ft 454 kts 317°
2026-05-04 03:20 42.73926 10.04402 28646 ft 456 kts 317°
2026-05-04 03:21 42.76340 10.01587 28920 ft 457 kts 316°
2026-05-04 03:21 42.78770 9.98750 29197 ft 459 kts 316°
2026-05-04 03:21 42.81169 9.95947 29468 ft 461 kts 316°
2026-05-04 03:21 42.83607 9.93096 29747 ft 463 kts 316°
2026-05-04 03:22 42.86061 9.90223 30025 ft 465 kts 316°
2026-05-04 03:22 42.88466 9.87206 30279 ft 465 kts 311°
2026-05-04 03:22 42.90570 9.83856 30509 ft 465 kts 305°
2026-05-04 03:22 42.92532 9.80398 30745 ft 466 kts 304°
2026-05-04 03:23 42.94428 9.76796 30990 ft 466 kts 299°
2026-05-04 03:23 42.95971 9.72934 31237 ft 464 kts 291°
2026-05-04 03:23 42.97265 9.68877 31489 ft 465 kts 290°
2026-05-04 03:23 42.98486 9.64791 31738 ft 465 kts 289°
2026-05-04 03:24 42.99671 9.60692 31969 ft 467 kts 288°
2026-05-04 03:24 43.00860 9.56541 32195 ft 468 kts 288°
2026-05-04 03:24 43.01638 9.53822 32340 ft 469 kts 288°
2026-05-04 03:24 43.02838 9.49648 32565 ft 470 kts 288°
2026-05-04 03:25 43.04036 9.45501 32780 ft 471 kts 288°
2026-05-04 03:25 43.05247 9.41322 33107 ft 470 kts 288°
2026-05-04 03:25 43.06454 9.37164 33431 ft 469 kts 288°
2026-05-04 03:25 43.07656 9.33026 33762 ft 467 kts 288°
2026-05-04 03:26 43.08850 9.28906 34081 ft 466 kts 288°
2026-05-04 03:26 43.10027 9.24836 34362 ft 465 kts 288°
2026-05-04 03:26 43.11209 9.20746 34642 ft 464 kts 288°
2026-05-04 03:26 43.12412 9.16571 34918 ft 463 kts 288°
2026-05-04 03:27 43.13575 9.12526 35189 ft 462 kts 288°
2026-05-04 03:27 43.14744 9.08454 35457 ft 460 kts 288°
2026-05-04 03:27 43.15919 9.04354 35725 ft 459 kts 288°
2026-05-04 03:27 43.17083 9.00286 35983 ft 458 kts 288°
2026-05-04 03:28 43.18252 8.96192 36081 ft 461 kts 288°
2026-05-04 03:28 43.20598 8.87954 36084 ft 465 kts 288°
2026-05-04 03:29 43.22929 8.79755 36085 ft 464 kts 288°
2026-05-04 03:29 43.25270 8.71488 36081 ft 464 kts 288°
2026-05-04 03:30 43.27606 8.63210 36086 ft 465 kts 288°
2026-05-04 03:30 43.29936 8.54927 36083 ft 465 kts 288°
2026-05-04 03:31 43.32260 8.46635 36084 ft 465 kts 288°
2026-05-04 03:31 43.34565 8.38387 36084 ft 465 kts 288°
2026-05-04 03:32 43.36876 8.30086 36088 ft 466 kts 288°
2026-05-04 03:32 43.39197 8.21725 36085 ft 466 kts 288°
2026-05-04 03:33 43.41502 8.13390 36084 ft 466 kts 288°
2026-05-04 03:33 43.43801 8.05050 36086 ft 466 kts 288°
2026-05-04 03:34 43.46094 7.96702 36084 ft 466 kts 288°
2026-05-04 03:34 43.48368 7.88395 36089 ft 466 kts 288°
2026-05-04 03:35 43.50652 7.80025 36090 ft 466 kts 288°
2026-05-04 03:35 43.52927 7.71660 36086 ft 466 kts 288°
2026-05-04 03:36 43.55184 7.63329 36089 ft 466 kts 288°
2026-05-04 03:36 43.57460 7.54902 36094 ft 466 kts 288°
2026-05-04 03:37 43.59702 7.46570 36096 ft 466 kts 288°
2026-05-04 03:37 43.62180 7.38285 36089 ft 469 kts 295°
2026-05-04 03:38 43.65933 7.30824 36113 ft 474 kts 305°
2026-05-04 03:38 43.70095 7.23818 36099 ft 475 kts 307°
2026-05-04 03:39 43.74345 7.16818 36100 ft 475 kts 307°
2026-05-04 03:39 43.78578 7.09777 36100 ft 475 kts 306°
2026-05-04 03:40 43.82787 7.02704 36101 ft 475 kts 306°
2026-05-04 03:40 43.86976 6.95631 36099 ft 475 kts 306°
2026-05-04 03:41 43.91141 6.88582 36096 ft 475 kts 306°
2026-05-04 03:41 43.95333 6.81471 36093 ft 475 kts 306°
2026-05-04 03:42 43.99521 6.74352 36087 ft 475 kts 306°
2026-05-04 03:42 44.03697 6.67235 36082 ft 476 kts 306°
2026-05-04 03:43 44.07882 6.60091 36073 ft 476 kts 305°
2026-05-04 03:43 44.12039 6.52974 36067 ft 476 kts 305°
2026-05-04 03:44 44.16213 6.45806 36061 ft 477 kts 305°
2026-05-04 03:44 44.20397 6.38605 36066 ft 477 kts 305°
2026-05-04 03:45 44.24537 6.31464 36052 ft 477 kts 305°
2026-05-04 03:45 44.28699 6.24268 36059 ft 477 kts 305°
2026-05-04 03:46 44.32880 6.17018 36050 ft 477 kts 304°
2026-05-04 03:46 44.37012 6.09837 36047 ft 477 kts 304°
2026-05-04 03:47 44.41170 6.02593 36042 ft 477 kts 304°
2026-05-04 03:47 44.45330 5.95327 36041 ft 477 kts 304°
2026-05-04 03:48 44.49474 5.88072 36038 ft 477 kts 304°
2026-05-04 03:48 44.53619 5.80800 36032 ft 477 kts 304°
2026-05-04 03:49 44.57729 5.73566 36028 ft 477 kts 304°
2026-05-04 03:49 44.61867 5.66260 36021 ft 477 kts 304°
2026-05-04 03:50 44.65993 5.58963 36019 ft 477 kts 304°
2026-05-04 03:50 44.70121 5.51639 36017 ft 478 kts 304°
2026-05-04 03:51 44.74230 5.44329 36014 ft 478 kts 303°
2026-05-04 03:51 44.78354 5.36973 36016 ft 479 kts 303°
2026-05-04 03:52 44.82477 5.29604 36016 ft 479 kts 303°
2026-05-04 03:52 44.86598 5.22218 36020 ft 479 kts 303°
2026-05-04 03:53 44.90693 5.14859 36018 ft 480 kts 303°
2026-05-04 03:53 44.94820 5.07424 36016 ft 480 kts 303°
2026-05-04 03:54 44.98944 4.99974 36022 ft 481 kts 303°
2026-05-04 03:54 45.03064 4.92513 36019 ft 481 kts 303°
2026-05-04 03:55 45.07153 4.85089 36024 ft 481 kts 303°